Date,TemperatureHighF,TemperatureAvgF,TemperatureLowF,DewpointHighF,DewpointAvgF,DewpointLowF,HumidityHigh,HumidityAvg,HumidityLow,PressureMaxIn,PressureMinIn,WindSpeedMaxMPH,WindSpeedAvgMPH,GustSpeedMaxMPH,PrecipitationSumIn
2013-1-1,43.1,38.4,34.3,31.3,28.6,24.8,73,68,62,29.64,29.52,9,0,9,0.00
2013-1-2,38.8,31.4,25.5,25.1,17.8,12.3,71,58,39,29.83,29.60,15,2,15,0.00
2013-1-3,44.7,29.7,19.0,23.4,17.8,12.7,78,62,42,29.84,29.72,9,0,9,0.00
2013-1-4,45.1,35.0,28.5,25.8,21.5,18.3,68,58,43,29.80,29.70,17,2,17,0.00
2013-1-5,47.4,37.5,30.2,26.4,22.8,20.1,67,56,43,29.97,29.75,18,2,18,0.00
2013-1-6,50.5,41.2,29.6,32.5,27.0,21.5,74,58,45,29.78,29.62,13,0,13,0.00
2013-1-7,47.1,38.7,29.4,29.7,26.2,21.5,73,61,47,30.03,29.75,11,1,11,0.00
2013-1-8,57.9,39.1,27.1,35.7,27.7,20.5,82,65,42,30.00,29.93,9,0,9,0.00
2013-1-9,48.5,36.9,26.9,39.7,30.9,22.3,86,79,68,29.98,29.81,8,0,8,0.00
2013-1-10,55.4,43.8,33.0,34.0,29.1,24.4,74,57,40,30.20,29.97,11,1,11,0.00
2013-1-11,46.0,42.0,39.7,39.4,33.5,27.6,91,73,56,30.08,29.70,32,2,32,0.14
2013-1-12,64.9,48.3,40.6,52.5,43.3,37.7,92,84,62,29.78,29.69,7,0,7,0.00
2013-1-13,59.3,52.6,45.8,55.9,48.9,42.7,92,87,75,29.71,29.54,14,3,14,0.00
2013-1-14,58.8,50.2,39.7,55.2,43.0,31.7,94,77,57,29.92,29.54,15,2,15,0.22
2013-1-15,41.9,38.9,35.2,36.2,34.2,30.8,89,83,74,29.95,29.76,8,1,8,0.47
2013-1-16,39.7,36.6,34.3,37.4,34.0,31.3,92,90,88,29.77,29.46,15,0,15,0.62
2013-1-17,41.5,38.9,34.5,37.9,31.0,27.3,92,74,61,29.75,29.58,11,1,11,0.00
2013-1-18,41.0,33.2,28.7,29.5,18.6,11.3,82,56,38,30.08,29.66,20,3,20,0.00
2013-1-19,60.9,43.3,30.2,33.6,26.3,18.9,69,52,33,29.96,29.53,13,1,13,0.00
2013-1-20,56.4,43.1,31.1,33.3,21.6,12.0,62,44,23,29.70,29.42,26,3,26,0.00
2013-1-21,46.2,32.3,25.5,24.5,16.4,7.8,59,52,42,29.71,29.42,19,2,19,0.00
2013-1-22,26.4,18.7,12.3,7.8,0.1,-3.0,56,44,32,29.88,29.57,20,4,20,0.00
2013-1-23,29.1,19.0,11.1,7.1,1.6,-1.0,61,47,32,29.93,29.72,14,1,14,0.00
2013-1-24,29.3,20.7,14.7,13.6,7.6,0.8,80,58,38,30.09,29.68,23,2,23,0.00
2013-1-25,22.6,18.7,13.8,14.3,7.8,1.1,77,63,47,30.10,29.65,17,1,17,0.00
2013-1-26,39.5,26.0,18.8,25.5,18.7,12.5,82,74,56,30.02,29.66,6,0,6,0.06
2013-1-27,43.5,30.3,17.7,23.5,18.6,11.3,79,63,43,30.18,30.02,14,1,14,0.00
2013-1-28,46.5,36.5,30.7,42.6,30.8,20.6,88,80,61,30.04,29.64,12,2,12,0.16
2013-1-29,73.9,57.9,46.0,56.8,49.2,42.3,90,74,54,29.72,29.55,15,2,15,0.00
2013-1-30,68.5,59.2,55.7,60.6,54.2,49.4,92,84,73,29.57,28.85,29,4,29,1.39
2013-1-31,55.9,39.8,27.6,53.6,26.5,12.0,92,60,44,29.50,28.81,25,5,25,0.32
2013-2-1,30.0,25.0,17.6,21.7,11.2,4.6,81,56,43,29.96,29.43,22,4,22,0.00
2013-2-2,27.6,21.9,12.9,21.3,12.0,4.1,77,66,51,29.97,29.59,13,1,13,0.00
2013-2-3,37.5,29.1,21.7,29.5,22.6,15.6,85,77,60,29.60,29.41,17,1,17,0.00
2013-2-4,41.1,30.8,23.5,24.8,16.7,11.2,73,56,41,29.68,29.47,20,2,20,0.00
2013-2-5,39.2,34.1,30.5,32.9,28.4,24.6,86,80,71,29.54,29.45,4,0,4,0.00
2013-2-6,40.8,34.4,27.5,31.3,26.1,18.6,88,72,57,29.94,29.53,12,1,12,0.00
2013-2-7,41.7,33.0,24.0,26.7,22.3,17.5,79,65,53,30.01,29.80,16,1,16,0.00
2013-2-8,38.4,35.7,32.7,34.5,29.6,22.0,89,79,65,29.80,29.39,25,2,25,0.02
2013-2-9,41.9,31.9,23.1,22.1,17.8,13.8,69,57,39,29.99,29.56,25,6,25,0.00
2013-2-10,48.5,33.5,18.3,23.5,17.8,12.5,80,55,33,30.05,29.78,20,2,20,0.00
2013-2-11,57.9,45.9,35.2,47.8,36.8,21.3,89,72,34,29.80,29.28,20,4,20,0.14
2013-2-12,58.8,46.6,33.8,33.1,28.1,24.0,69,49,36,29.61,29.45,20,2,20,0.00
2013-2-13,45.5,35.8,28.0,31.8,27.5,22.0,88,73,54,29.55,29.28,14,0,14,0.03
2013-2-14,55.9,41.4,31.2,35.9,29.9,25.5,90,66,43,29.61,29.39,13,1,13,0.10
2013-2-15,58.6,43.2,34.3,37.2,31.5,25.1,86,65,44,29.64,29.53,16,1,16,0.14
2013-2-16,38.1,33.8,28.5,31.9,25.2,16.9,90,72,52,29.61,29.46,17,2,17,0.00
2013-2-17,33.0,26.4,22.4,17.2,12.7,7.1,70,56,42,29.81,29.46,20,5,20,0.00
2013-2-18,48.7,32.2,17.7,19.2,12.0,5.0,62,44,29,29.96,29.71,21,2,21,0.00
2013-2-19,52.7,40.7,34.8,40.2,27.5,16.6,80,60,43,29.72,29.27,22,4,22,0.06
2013-2-21,27.6,26.1,24.9,15.8,15.3,14.7,68,63,58,29.93,29.90,0,0,0,0.00
2013-2-22,32.9,29.9,24.9,27.3,21.7,15.8,83,72,58,29.98,29.78,17,2,17,0.02
2013-2-23,48.3,38.6,32.1,40.0,33.5,27.3,88,82,72,29.78,29.44,16,2,16,0.00
2013-2-24,39.3,38.7,36.5,36.3,35.5,33.4,89,89,88,29.47,29.41,4,0,4,0.00
2013-2-26,41.1,40.1,38.6,38.4,37.0,34.6,91,89,86,29.51,29.24,32,6,32,0.67
2013-2-27,55.9,44.8,36.6,43.7,36.3,32.7,92,74,50,29.31,29.16,13,2,13,0.06
2013-2-28,48.0,40.9,33.6,34.0,30.0,26.1,77,65,51,29.34,29.25,16,1,16,0.00
2013-3-1,45.5,38.8,33.8,31.2,28.1,22.4,75,66,52,29.51,29.33,16,1,16,0.00
2013-3-2,39.2,33.0,29.3,24.5,21.7,19.6,68,63,52,29.50,29.43,12,2,14,0.00
2013-3-3,40.4,32.7,28.7,22.6,20.2,17.8,74,60,46,29.54,29.42,20,4,20,0.00
2013-3-4,44.0,33.2,26.6,21.7,17.5,14.0,65,53,39,29.64,29.53,22,4,22,0.00
2013-3-5,56.1,37.4,23.0,25.1,20.3,15.9,78,53,28,29.68,29.41,22,1,22,0.00
2013-3-6,39.7,35.8,33.2,33.8,31.4,24.7,92,84,55,29.63,29.29,17,3,17,0.37
2013-3-7,48.7,38.8,28.7,30.5,28.0,24.8,87,67,47,29.78,29.63,19,4,19,0.00
2013-3-8,50.3,40.1,32.1,30.2,27.0,23.9,77,60,45,29.91,29.75,26,6,26,0.00
2013-3-9,66.3,42.6,25.1,35.0,26.4,20.3,82,57,27,29.98,29.86,9,0,9,0.00
2013-3-10,68.3,49.6,30.7,35.5,26.9,21.7,75,46,24,29.91,29.79,17,2,17,0.00
2013-3-11,62.2,51.8,42.6,47.7,39.1,21.9,82,63,33,29.80,29.46,30,7,30,0.00
2013-3-12,57.3,51.1,41.0,50.5,41.9,29.1,89,71,54,29.59,29.36,28,6,28,0.77
2013-3-13,53.0,39.7,29.8,34.0,25.4,19.4,79,58,34,29.67,29.50,20,2,20,0.00
2013-3-14,46.2,36.7,30.7,21.0,18.0,15.7,61,47,33,29.73,29.64,22,5,22,0.00
2013-3-15,59.3,42.7,26.0,34.6,25.5,16.5,73,52,32,29.70,29.38,14,1,14,0.08
2013-3-16,50.3,42.8,36.5,37.3,33.8,29.4,85,71,57,29.54,29.26,14,2,14,17.30
2013-3-17,41.1,37.6,35.2,32.7,27.1,21.3,85,67,51,29.86,29.53,17,2,17,1.87
2013-3-18,36.6,34.8,32.7,30.3,25.7,19.5,88,70,54,29.89,29.50,14,1,14,0.00
2013-3-19,60.4,43.3,33.4,40.5,28.9,13.9,91,63,24,29.53,29.34,20,3,20,0.24
2013-3-20,55.4,41.7,30.7,26.1,19.2,14.2,64,42,25,29.59,29.37,16,3,16,0.00
2013-3-21,38.8,32.0,24.9,24.7,14.4,8.6,64,49,36,29.51,29.38,22,4,22,0.00
2013-3-22,47.3,34.8,22.8,23.0,17.6,9.0,62,50,36,29.62,29.47,19,2,19,0.00
2013-3-23,55.4,38.6,23.5,29.3,21.8,15.9,76,53,30,29.64,29.52,17,2,17,0.00
2013-3-24,45.3,36.4,27.5,29.3,23.4,17.4,80,60,44,29.61,29.25,10,0,10,0.00
2013-3-25,43.5,36.4,32.7,35.6,31.4,28.9,88,82,72,29.32,29.14,6,0,6,0.48
2013-3-26,52.7,41.1,32.7,37.5,31.0,26.9,91,70,43,29.61,29.31,14,1,14,0.04
2013-3-27,51.9,42.2,36.3,33.6,28.5,25.5,71,59,43,29.73,29.61,21,3,21,0.00
2013-3-28,48.9,41.4,33.6,32.9,29.5,25.9,76,63,45,29.84,29.69,21,2,21,0.00
2013-3-29,57.9,46.2,37.4,37.6,30.6,26.7,73,56,34,29.86,29.75,16,1,16,0.00
2013-3-30,66.9,47.0,30.7,37.2,27.7,21.6,80,52,24,29.85,29.70,10,0,10,0.00
2013-3-31,50.0,46.6,41.7,44.7,35.3,22.1,90,67,35,29.70,29.36,20,1,20,0.14
2013-4-1,61.3,46.5,33.2,48.3,34.7,17.9,92,66,41,29.61,29.36,19,2,19,0.00
2013-4-2,50.7,37.5,25.8,25.9,19.3,14.1,71,50,29,29.78,29.60,22,2,22,0.00
2013-4-3,52.8,37.1,25.5,24.4,18.3,12.7,67,49,25,29.99,29.77,90,3,90,0.00
2013-4-4,55.2,39.0,22.6,23.8,17.5,12.5,67,45,26,30.01,29.67,12,1,12,0.00
2013-4-5,68.7,50.5,34.3,36.5,27.9,18.2,75,45,26,29.68,29.44,19,2,19,0.00
2013-4-6,62.4,47.3,30.3,31.4,22.9,17.6,65,40,24,29.93,29.68,20,1,20,0.00
2013-4-7,73.9,57.2,41.7,43.2,34.8,19.7,56,44,33,29.84,29.56,21,3,21,0.00
2013-4-8,86.1,70.2,53.2,52.9,45.8,41.2,66,44,25,29.69,29.55,86,1,86,0.00
2013-4-9,90.3,73.7,55.9,59.2,51.7,44.9,71,48,31,29.71,29.54,15,1,15,0.00
2013-4-10,94.2,77.2,59.7,61.4,54.9,49.3,70,48,30,29.59,29.39,86,1,86,0.00
2013-4-11,91.9,73.1,57.0,62.5,55.9,50.1,79,58,35,29.54,29.35,18,1,18,0.00
2013-4-12,76.8,59.3,50.7,62.3,53.1,41.5,90,81,60,29.43,29.21,19,2,19,0.47
2013-4-13,72.6,57.2,44.4,43.6,37.8,31.8,76,51,31,29.59,29.43,15,2,15,0.00
2013-4-14,71.4,55.5,38.8,41.0,35.8,31.9,78,50,31,29.77,29.59,12,1,12,0.00
2013-4-15,68.7,60.6,55.2,51.5,45.2,36.3,65,57,44,29.88,29.72,17,3,17,0.00
2013-4-16,80.6,65.5,55.2,60.4,53.5,44.9,80,66,49,29.88,29.71,17,2,17,0.00
2013-4-17,74.4,65.3,55.9,64.3,56.6,51.0,91,75,59,29.84,29.74,12,1,12,0.33
2013-4-18,77.7,66.2,59.1,65.8,57.4,53.0,86,74,58,29.84,29.57,22,3,22,0.02
2013-4-19,78.8,66.2,52.7,65.1,57.9,42.4,85,75,61,29.58,29.21,22,4,22,0.77
2013-4-20,63.1,52.1,41.9,42.6,32.7,25.5,69,49,32,29.96,29.41,86,3,86,0.00
2013-4-21,62.7,46.1,31.8,34.4,26.5,22.6,72,48,32,30.20,29.96,12,1,12,0.00
2013-4-22,64.0,50.7,37.5,37.3,31.6,25.8,72,49,34,30.16,29.98,15,2,15,0.00
2013-4-23,68.0,51.2,39.9,47.6,37.9,30.8,75,62,45,30.01,29.71,14,0,14,0.00
2013-4-24,80.9,61.4,44.9,57.9,49.2,37.4,85,66,42,29.72,29.36,20,3,20,0.18
2013-4-25,68.9,54.4,42.2,43.0,34.8,31.1,67,50,29,29.92,29.67,20,2,20,0.00
2013-4-26,71.2,54.3,38.6,40.4,34.7,30.4,77,50,28,30.08,29.90,22,1,22,0.00
2013-4-27,77.3,59.6,39.5,46.1,38.2,31.9,77,48,29,30.02,29.87,14,1,14,0.00
2013-4-28,69.6,57.1,51.6,47.3,42.1,36.1,75,58,40,29.88,29.73,16,2,16,0.13
2013-4-29,63.8,56.7,52.7,57.8,51.8,46.3,89,84,71,29.75,29.64,16,2,16,0.14
2013-4-30,63.1,58.0,55.0,56.8,53.4,51.6,90,85,78,29.91,29.71,11,1,11,0.04
2013-5-1,77.9,61.4,46.4,52.6,42.6,36.2,90,56,25,30.02,29.90,14,1,14,0.00
2013-5-2,77.9,60.3,41.5,49.9,43.6,37.0,86,58,32,30.04,29.91,15,1,15,0.00
2013-5-3,75.9,59.9,46.2,49.3,43.7,38.7,79,58,34,29.99,29.88,13,1,13,0.00
2013-5-4,76.8,58.8,41.5,48.4,42.1,36.3,84,57,33,29.94,29.77,16,1,16,0.00
2013-5-5,72.1,55.9,42.6,45.7,40.2,36.5,82,58,34,29.86,29.74,22,1,22,0.00
2013-5-6,68.7,57.9,45.3,56.9,49.4,38.5,87,74,60,29.79,29.68,16,2,16,0.10
2013-5-7,64.0,60.9,58.8,60.4,57.1,54.9,91,87,83,29.69,29.56,19,4,19,1.12
2013-5-8,78.6,62.5,53.7,60.3,55.6,49.9,91,79,50,29.62,29.54,14,1,19,0.25
2013-5-9,77.3,63.0,49.8,62.2,54.8,47.2,93,76,54,29.64,29.53,9,0,9,0.00
2013-5-10,89.9,67.6,52.5,64.5,57.3,49.5,90,73,37,29.63,29.48,12,0,12,0.71
2013-5-11,79.1,66.7,59.9,67.2,60.4,53.2,92,81,63,29.50,29.36,9,0,9,0.33
2013-5-12,67.2,57.9,43.3,53.2,39.8,28.9,83,54,32,29.65,29.40,18,2,18,0.00
2013-5-13,49.8,43.0,39.9,35.0,32.2,30.7,73,66,53,29.73,29.63,5,0,5,0.00
2013-5-14,70.3,59.3,39.0,43.2,37.4,32.7,78,46,33,29.84,29.63,14,0,14,0.00
2013-5-15,88.1,68.5,54.3,65.3,51.6,35.6,88,56,44,29.64,29.30,16,1,16,0.08
2013-5-16,83.8,70.8,61.5,67.2,60.7,55.0,89,72,50,29.58,29.38,10,0,10,0.02
2013-5-17,88.1,72.2,55.5,64.5,56.0,46.8,90,61,38,29.75,29.57,16,1,16,0.00
2013-5-18,70.5,65.4,59.9,57.8,53.7,46.6,83,67,43,29.84,29.73,16,1,16,0.00
2013-5-19,75.3,66.0,59.3,66.2,60.1,54.7,87,81,71,29.82,29.70,22,0,22,0.00
2013-5-20,89.4,75.6,64.7,70.2,65.6,61.8,90,73,51,29.73,29.59,12,1,12,0.00
2013-5-21,94.8,79.1,64.2,73.7,67.5,61.1,91,70,46,29.62,29.48,13,0,13,0.00
2013-5-22,96.4,79.4,66.7,71.7,66.9,61.3,90,69,39,29.58,29.43,17,0,17,0.53
2013-5-23,84.9,71.5,64.5,69.9,64.6,61.3,90,80,58,29.52,29.36,7,0,7,0.23
2013-5-24,65.1,56.1,46.5,62.1,46.2,33.4,91,71,54,29.80,29.38,16,2,16,0.04
2013-5-25,68.5,54.8,41.7,43.6,36.8,32.6,75,53,34,29.82,29.70,19,2,19,8.53
2013-5-26,77.5,59.6,41.7,46.1,39.3,34.0,77,50,28,29.85,29.74,13,1,13,0.00
2013-5-27,73.9,59.8,43.5,49.9,44.4,37.1,79,59,38,29.91,29.79,6,0,6,0.00
2013-5-28,82.9,68.5,57.9,64.1,56.9,47.4,79,67,53,29.82,29.67,10,0,10,0.00
2013-5-29,94.6,79.7,65.8,69.4,64.5,60.3,83,62,37,29.75,29.68,13,1,13,0.00
2013-5-30,99.3,82.9,67.8,72.2,65.9,61.4,81,59,37,29.82,29.71,7,0,7,0.00
2013-5-31,96.8,82.8,67.4,68.6,64.0,60.5,81,56,34,29.78,29.64,10,0,10,0.00
2013-6-1,96.6,83.7,70.8,70.8,65.8,61.4,75,57,40,29.67,29.52,10,0,10,0.00
2013-6-2,88.5,77.0,71.2,72.4,66.0,61.6,83,69,55,29.53,29.46,7,0,7,0.10
2013-6-3,87.8,72.9,62.9,70.5,63.0,53.7,92,73,52,29.60,29.48,10,0,10,0.40
2013-6-4,82.2,66.6,49.6,54.6,50.0,45.0,85,59,35,29.75,29.60,11,0,11,0.00
2013-6-5,85.1,69.9,53.4,59.4,53.6,47.2,82,59,39,29.80,29.65,13,1,13,0.00
2013-6-6,72.5,66.2,63.6,62.4,57.0,48.3,89,73,57,29.68,29.48,14,1,14,0.04
2013-6-7,71.9,66.8,63.8,68.3,64.0,60.6,93,91,85,29.48,29.27,18,0,18,0.39
2013-6-8,84.7,71.6,63.6,66.7,61.6,57.0,91,72,49,29.73,29.37,10,0,10,0.00
2013-6-9,86.7,72.9,60.9,67.4,62.5,56.4,86,71,49,29.82,29.71,12,1,12,0.02
2013-6-10,84.5,72.6,68.5,74.3,67.6,63.0,91,85,69,29.73,29.40,14,1,14,0.63
2013-6-11,83.3,73.7,64.2,70.3,65.5,61.9,93,77,59,29.49,29.42,12,0,12,0.00
2013-6-12,94.4,79.0,64.7,73.7,66.7,61.3,90,69,46,29.51,29.41,7,0,7,0.00
2013-6-13,87.4,74.3,67.2,70.7,65.1,55.4,89,74,54,29.44,29.12,21,1,21,0.70
2013-6-14,84.0,70.9,61.1,60.0,55.6,53.1,81,60,40,29.62,29.26,14,1,14,0.00
2013-6-15,88.3,72.3,57.0,65.2,56.6,50.2,88,61,34,29.72,29.61,10,0,10,0.00
2013-6-16,86.0,73.1,63.5,67.8,60.2,50.2,78,65,53,29.67,29.52,14,0,14,0.00
2013-6-17,93.3,79.1,65.4,72.6,65.9,60.4,85,66,44,29.60,29.50,8,0,8,0.00
2013-6-18,79.3,73.6,66.0,71.1,66.6,62.2,89,79,73,29.55,29.42,8,0,8,1.16
2013-6-19,83.8,71.3,63.1,66.5,60.7,56.4,92,72,42,29.78,29.53,9,0,9,0.31
2013-6-20,85.1,72.6,60.9,68.2,61.4,54.9,90,70,49,29.88,29.77,14,1,14,0.00
2013-6-21,89.4,76.3,62.7,63.4,55.9,47.0,66,50,39,29.90,29.84,10,1,10,0.00
2013-6-22,93.5,79.5,66.7,70.3,64.2,50.7,82,61,41,29.87,29.73,12,0,12,0.00
2013-6-23,96.6,80.8,67.8,72.8,67.7,62.8,88,66,42,29.82,29.69,9,0,9,0.00
2013-6-24,97.5,81.3,69.6,75.0,68.1,64.5,85,66,43,29.77,29.65,22,0,22,0.00
2013-6-25,98.4,82.8,68.7,75.0,69.1,62.2,87,66,41,29.67,29.51,17,1,17,0.22
2013-6-26,96.9,78.0,65.3,75.5,67.7,61.9,90,73,47,29.58,29.45,6,0,8,0.00
2013-6-27,90.3,77.8,68.9,74.5,69.3,65.7,91,76,57,29.47,29.26,23,1,23,0.00
2013-6-28,92.8,78.6,67.6,73.2,66.6,62.4,88,68,45,29.27,29.11,15,1,15,0.00
2013-6-29,92.6,78.5,66.5,68.3,63.9,60.2,86,64,38,29.35,29.16,9,0,9,0.02
2013-6-30,93.0,78.4,67.2,74.4,68.9,63.2,89,74,53,29.48,29.33,10,1,10,0.00
2013-7-1,89.7,78.8,72.6,73.8,69.7,67.4,85,74,55,29.60,29.46,11,1,11,0.00
2013-7-2,91.9,79.5,74.4,74.4,70.7,68.3,86,75,54,29.78,29.59,13,1,13,0.00
2013-7-3,90.8,78.9,73.7,75.5,71.1,68.5,85,77,60,29.85,29.77,12,1,12,0.00
2013-7-4,94.8,83.3,73.9,75.6,71.7,68.9,87,70,52,29.87,29.77,13,1,13,0.00
2013-7-5,95.9,84.7,74.3,75.6,71.7,68.6,83,66,50,29.84,29.73,13,1,13,0.00
2013-7-6,99.8,86.1,74.8,76.0,71.2,67.3,82,63,42,29.82,29.68,12,0,12,0.00
2013-7-7,98.0,80.5,69.8,74.3,69.0,64.9,90,70,46,29.74,29.63,13,0,13,0.71
2013-7-8,92.4,79.0,69.6,73.5,68.7,66.2,91,73,47,29.75,29.66,8,0,8,0.03
2013-7-9,89.2,78.3,71.2,74.7,69.8,65.7,85,76,58,29.74,29.62,8,0,8,0.04
2013-7-10,89.7,80.2,73.5,76.6,71.3,68.4,85,75,58,29.64,29.49,12,0,12,0.00
2013-7-11,92.1,79.0,71.9,73.4,67.5,60.7,85,69,48,29.57,29.48,7,0,7,0.00
2013-7-12,81.1,72.3,66.0,70.4,65.2,61.3,89,79,64,29.69,29.55,10,0,10,0.50
2013-7-13,89.4,77.5,69.0,72.8,69.2,65.5,92,77,57,29.88,29.67,13,0,13,0.15
2013-7-14,96.0,83.4,72.1,75.5,71.8,68.5,92,70,48,29.96,29.88,10,0,10,0.06
2013-7-15,101.6,84.6,71.0,76.7,71.9,67.6,89,68,42,29.94,29.82,7,0,7,0.00
2013-7-16,98.7,85.8,75.3,77.9,71.1,67.1,86,64,40,29.90,29.80,11,0,11,0.00
2013-7-17,102.3,87.6,73.5,79.7,71.0,67.4,85,61,35,29.87,29.72,10,0,10,0.00
2013-7-18,103.2,88.2,74.4,80.5,73.9,67.4,87,65,41,29.76,29.64,8,0,8,0.00
2013-7-19,103.4,90.8,77.3,80.3,73.8,66.9,77,59,41,29.66,29.49,17,1,17,0.00
2013-7-20,97.1,82.6,73.9,76.7,70.2,65.7,83,67,47,29.56,29.43,100,0,100,0.61
2013-7-21,92.3,79.1,70.8,75.3,69.8,65.6,87,74,54,29.59,29.51,7,0,7,0.00
2013-7-22,94.1,78.7,70.1,75.2,70.9,66.9,91,79,51,29.58,29.40,9,0,9,1.49
2013-7-23,91.0,77.9,71.4,75.3,71.0,68.9,93,81,54,29.42,29.31,10,0,10,0.06
2013-7-27,78.6,75.1,72.6,70.7,68.2,66.3,83,79,76,29.57,29.54,10,1,10,0.00
2013-7-28,89.2,75.8,65.4,72.3,67.2,62.1,89,76,49,29.64,29.51,12,0,12,0.84
2013-7-29,87.6,72.3,57.9,66.3,59.7,55.4,93,69,38,29.77,29.63,10,0,10,0.00
2013-7-30,89.2,79.2,58.8,65.1,61.2,54.3,86,56,42,29.86,29.76,8,0,8,0.00
2013-7-31,84.3,76.2,66.7,69.3,66.0,62.0,85,71,59,29.78,29.62,9,1,9,0.00
2013-8-1,91.0,74.9,68.3,73.9,67.9,64.9,90,80,56,29.63,29.45,9,0,9,0.04
2013-8-2,90.6,81.1,64.0,69.2,65.9,59.1,91,62,39,29.60,29.51,10,1,10,0.00
2013-8-3,73.7,71.1,69.8,66.1,62.4,60.6,77,74,73,29.59,29.57,0,0,0,0.00
2013-8-4,86.1,75.9,62.9,67.7,63.3,52.6,92,67,41,29.67,29.60,8,0,8,0.00
2013-8-5,85.1,75.1,58.4,62.9,59.1,52.1,85,60,39,29.75,29.64,0,0,25,0.00
2013-8-7,77.5,74.8,72.1,70.9,70.1,68.3,88,85,79,29.67,29.63,0,0,0,0.33
2013-8-8,89.2,83.5,74.1,75.9,73.6,71.0,90,73,63,29.65,29.60,8,1,9,0.02
2013-8-9,87.9,84.4,79.3,77.3,75.1,72.2,79,74,66,29.55,29.51,8,1,10,0.57
2013-8-10,87.4,87.4,87.4,67.6,67.6,67.6,52,52,52,29.68,29.68,0,0,0,0.00
2013-8-11,87.6,86.2,85.1,69.8,68.1,65.9,60,55,51,29.74,29.63,4,1,4,0.00
2013-8-12,93.0,83.1,73.2,75.2,70.1,65.4,89,66,47,29.66,29.54,1,0,6,0.00
2013-8-13,91.0,77.2,69.0,74.2,67.4,56.7,90,73,50,29.54,29.38,6,0,6,0.49
2013-8-14,79.5,67.0,54.3,58.3,52.4,46.8,79,61,44,29.74,29.49,14,0,14,0.00
2013-8-15,84.3,66.7,51.6,60.8,52.5,47.6,88,64,36,29.82,29.72,4,0,4,0.00
2013-8-16,86.3,68.9,53.2,62.4,54.3,48.7,87,63,37,29.82,29.75,8,0,8,0.00
2013-8-17,88.3,71.5,55.5,66.7,56.7,50.7,85,62,40,29.89,29.82,12,0,12,0.00
2013-8-18,74.1,66.8,62.2,64.8,60.0,56.6,87,79,60,29.89,29.80,22,0,22,0.12
2013-8-19,82.2,69.3,60.4,69.9,63.3,57.2,91,82,65,29.81,29.69,6,0,6,0.02
2013-8-20,92.1,75.0,62.9,73.3,65.4,60.4,92,75,45,29.82,29.72,7,0,7,0.00
2013-8-21,94.2,77.6,63.6,74.7,67.1,59.7,88,72,51,29.83,29.69,11,0,11,0.00
2013-8-22,91.9,77.1,68.5,72.6,66.9,61.5,87,72,49,29.73,29.56,5,0,5,0.00
2013-8-23,76.6,70.3,64.0,70.2,65.2,61.4,91,84,75,29.77,29.58,0,0,0,0.22
2013-8-24,88.5,71.7,59.5,70.2,60.5,54.5,93,71,42,29.95,29.76,22,0,22,0.02
2013-8-25,89.7,73.4,59.3,69.0,60.1,53.9,89,66,42,30.02,29.87,0,0,0,0.00
2013-8-26,92.8,77.5,64.5,69.1,63.0,57.9,80,63,43,29.90,29.61,0,0,0,0.00
2013-8-27,96.0,80.0,69.8,75.7,68.8,63.1,84,70,49,29.63,29.51,0,0,0,0.00
2013-8-28,78.6,74.1,71.2,72.5,70.0,68.2,92,87,80,29.56,29.45,0,0,0,0.29
2013-8-29,91.5,77.7,69.6,72.8,68.7,64.8,93,76,52,29.65,29.49,0,0,0,0.00
2013-8-30,93.9,79.5,67.2,73.9,68.8,63.8,91,72,47,29.66,29.50,0,0,0,0.00
2013-8-31,95.7,81.3,72.5,75.5,70.6,67.0,84,71,49,29.51,29.41,0,0,0,0.00
2013-9-1,97.7,79.9,69.0,75.8,69.4,65.0,89,72,46,29.49,29.38,22,0,22,0.63
2013-9-2,94.8,80.4,70.3,76.4,70.5,67.2,92,74,48,29.45,29.35,9,0,9,0.00
2013-9-3,90.3,76.9,64.2,69.2,62.8,53.4,88,64,40,29.61,29.38,0,0,0,0.00
2013-9-4,88.3,70.5,55.2,62.6,55.4,50.7,86,62,33,29.73,29.61,0,0,0,0.00
2013-9-5,88.3,71.0,58.8,66.9,56.4,46.9,85,62,36,29.77,29.65,0,0,0,0.00
2013-9-6,81.5,65.5,51.0,54.3,48.6,44.9,82,57,32,29.89,29.76,0,0,0,0.00
2013-9-7,88.5,68.4,51.0,62.9,53.7,44.6,84,62,38,29.77,29.57,0,0,0,0.00
2013-9-8,91.7,74.6,62.9,70.5,61.7,53.4,88,66,47,29.69,29.52,0,0,0,0.04
2013-9-9,80.9,69.9,60.9,64.5,54.7,45.1,78,59,50,29.83,29.69,0,0,0,0.00
2013-9-10,97.7,81.8,68.5,74.8,69.2,63.5,85,67,47,29.80,29.70,22,0,22,0.00
2013-9-11,79.5,77.6,74.8,70.1,69.6,68.5,81,76,72,29.77,29.74,0,0,0,0.00
2013-9-12,98.0,85.4,73.0,75.5,68.0,60.6,84,57,37,29.56,29.38,0,0,0,0.02
2013-9-13,82.2,69.7,57.0,62.1,55.4,46.1,81,62,38,29.59,29.36,0,0,0,0.06
2013-9-14,77.5,59.6,45.6,51.9,45.1,41.0,85,62,36,29.79,29.58,0,0,0,1.02
2013-9-15,83.8,64.3,46.2,56.4,49.9,41.3,85,63,37,29.85,29.69,0,0,0,0.00
2013-9-16,76.8,65.3,55.9,62.3,55.7,49.6,89,72,49,29.86,29.65,0,0,0,0.14
2013-9-17,77.1,60.4,45.6,51.5,44.6,38.3,83,59,31,30.04,29.86,0,0,0,0.00
2013-9-18,80.2,60.8,45.5,53.7,45.9,39.5,86,61,37,29.95,29.79,0,0,0,0.00
2013-9-19,85.1,66.1,51.4,60.5,52.8,44.5,81,64,40,29.81,29.69,0,0,0,0.00
2013-9-20,87.6,70.4,55.5,64.5,58.2,51.5,88,68,45,29.70,29.56,0,0,0,0.00
2013-9-21,70.7,65.5,60.6,63.3,60.2,57.9,91,83,73,29.57,29.31,0,0,0,0.60
2013-9-22,76.8,63.0,51.9,60.5,53.0,45.1,93,72,44,29.60,29.36,0,0,0,0.00
2013-9-23,73.4,59.2,47.8,49.8,45.6,41.5,80,63,39,29.72,29.59,0,0,0,0.00
2013-9-24,79.5,58.7,42.6,53.5,45.9,39.0,88,66,35,29.75,29.57,0,0,0,0.00
2013-9-25,84.9,61.7,45.6,55.9,47.2,41.4,86,63,30,29.63,29.50,0,0,0,0.00
2013-9-26,82.9,62.0,48.9,57.9,49.5,43.3,84,66,38,29.70,29.56,0,0,0,0.00
2013-9-27,77.1,61.8,51.6,60.4,52.8,46.2,84,73,54,29.85,29.70,0,0,0,0.00
2013-9-28,71.4,61.2,51.9,58.8,52.6,46.9,89,74,54,29.93,29.83,0,0,0,0.00
2013-9-29,81.6,60.8,45.5,59.7,49.7,42.1,89,70,37,29.84,29.67,0,0,0,0.00
2013-9-30,84.3,64.9,49.8,60.2,52.2,46.0,88,67,38,29.72,29.59,0,0,0,0.00
2013-10-1,87.8,68.7,54.3,63.6,56.5,50.4,88,68,41,29.70,29.59,0,0,0,0.00
2013-10-2,91.7,71.6,56.8,65.2,58.4,53.3,89,67,38,29.72,29.62,0,0,0,0.00
2013-10-3,90.6,72.1,58.8,67.0,60.5,53.9,87,69,43,29.76,29.66,0,0,0,0.00
2013-10-4,94.1,73.3,61.7,69.9,62.2,57.3,88,71,41,29.74,29.63,22,0,22,0.00
2013-10-5,94.8,77.6,64.0,69.0,63.8,59.9,87,65,39,29.73,29.61,0,0,0,0.00
2013-10-6,93.9,78.4,64.9,70.5,63.6,59.9,87,63,38,29.64,29.51,0,0,0,0.00
2013-10-7,73.9,65.6,51.8,67.0,58.1,44.3,88,77,59,29.70,29.36,0,0,0,0.51
2013-10-8,76.2,58.7,45.3,53.6,46.1,41.3,88,66,38,29.91,29.69,0,0,0,0.00
2013-10-9,65.3,55.4,47.6,50.3,45.2,42.8,86,70,47,29.95,29.86,0,0,0,0.00
2013-10-10,55.9,54.0,52.8,52.7,50.1,46.7,93,87,78,29.86,29.65,0,0,0,3.32
2013-10-11,62.4,57.3,53.4,60.5,55.5,51.4,94,94,92,29.65,29.59,0,0,0,1.10
2013-10-12,71.0,62.9,58.1,62.1,57.9,52.8,94,84,64,29.80,29.62,22,0,22,0.33
2013-10-13,60.6,58.9,57.9,56.7,56.1,55.3,93,90,86,29.93,29.80,0,0,0,0.27
2013-10-14,75.9,61.7,54.8,60.7,54.5,50.8,93,78,56,29.95,29.84,0,0,0,0.00
2013-10-15,78.6,61.7,49.1,61.1,52.5,46.5,93,74,45,29.86,29.69,0,0,0,0.00
2013-10-16,73.7,64.5,56.3,62.0,57.1,46.6,87,77,65,29.70,29.52,0,0,0,0.00
2013-10-17,81.1,66.9,58.8,66.2,59.7,48.2,91,79,56,29.53,29.31,0,0,0,0.08
2013-10-18,73.2,58.8,46.9,48.4,44.4,40.3,78,60,38,29.63,29.49,0,0,0,0.00
2013-10-19,62.7,52.8,43.3,54.8,46.8,39.4,87,80,71,29.62,29.37,0,0,0,0.04
2013-10-20,68.5,52.8,39.0,44.3,39.0,34.3,86,62,36,29.70,29.51,0,0,0,0.00
2013-10-21,73.2,55.2,38.4,48.0,40.3,34.3,87,61,34,29.75,29.54,0,0,0,0.00
2013-10-22,64.9,54.6,40.4,50.0,42.1,31.8,76,63,40,29.54,29.45,0,0,0,0.00
2013-10-23,55.0,45.8,37.9,41.8,35.9,32.0,80,69,52,29.52,29.30,0,0,0,0.00
2013-10-24,55.7,43.4,34.3,38.4,31.8,26.6,82,65,40,29.74,29.51,0,0,0,0.00
2013-10-25,60.4,41.5,30.3,39.6,30.7,26.3,88,68,41,29.91,29.73,0,0,0,0.04
2013-10-26,62.2,46.4,32.1,34.0,29.6,26.1,79,55,30,29.91,29.53,36,0,36,3.85
2013-10-27,64.9,49.9,37.5,40.8,33.4,29.4,78,55,34,29.75,29.56,0,0,0,0.00
2013-10-28,66.5,47.4,32.7,43.7,34.6,27.5,84,63,24,29.88,29.74,0,0,0,0.00
2013-10-29,69.8,50.0,34.8,45.4,38.2,30.4,87,66,39,30.01,29.88,0,0,0,0.00
2013-10-30,74.8,60.6,51.4,55.0,48.2,40.5,80,64,49,29.91,29.74,0,0,0,0.02
2013-10-31,67.8,62.6,58.2,59.1,56.5,52.8,88,81,69,29.78,29.34,0,0,0,0.05
2013-11-1,78.6,65.1,51.6,61.4,53.6,43.9,88,69,37,29.34,29.15,0,0,0,0.20
2013-11-2,67.8,54.0,45.1,52.5,43.5,37.0,88,69,51,29.51,29.28,0,0,0,0.00
2013-11-3,59.9,48.3,34.1,40.9,32.9,23.9,76,57,31,30.06,29.50,1,0,1,0.00
2013-11-4,52.8,38.4,27.3,30.3,25.1,20.5,78,60,38,30.22,30.06,0,0,0,0.00
2013-11-5,58.8,47.3,33.6,42.6,34.8,23.7,74,62,51,30.21,30.03,0,0,0,0.00
2013-11-6,73.0,59.6,47.8,52.5,47.6,40.3,82,65,48,30.04,29.63,0,0,0,0.00
2013-11-7,60.0,53.9,40.8,52.8,43.8,25.4,86,69,49,29.69,29.48,0,0,0,0.22
2013-11-8,52.7,41.7,31.6,36.0,26.8,23.0,75,57,38,29.91,29.68,0,0,0,0.00
2013-11-9,59.5,44.4,28.9,35.4,28.1,22.0,80,55,35,29.94,29.62,0,0,0,0.00
2013-11-10,62.2,48.9,39.5,38.0,30.2,26.0,68,50,35,29.84,29.57,0,0,0,0.00
2013-11-11,62.7,47.3,33.0,35.7,29.9,24.6,75,53,34,29.89,29.61,0,0,0,0.00
2013-11-12,50.5,38.5,27.3,36.8,22.5,13.6,71,53,40,30.00,29.59,20,2,20,0.00
2013-11-13,46.0,34.3,25.7,24.4,19.6,15.8,69,56,38,30.07,29.96,13,1,13,0.00
2013-11-14,62.4,41.4,25.7,26.7,20.5,14.7,67,46,23,29.97,29.80,7,0,7,0.00
2013-11-15,65.3,46.1,29.8,34.2,25.3,19.9,69,47,23,29.88,29.77,8,0,8,0.00
2013-11-16,66.2,51.7,41.1,49.6,43.2,30.5,89,74,49,29.91,29.80,12,1,12,0.26
2013-11-17,61.5,56.6,51.0,57.9,53.0,47.8,92,88,83,29.81,29.30,17,4,17,0.02
2013-11-18,68.1,58.0,47.1,57.9,37.4,25.5,88,49,26,29.56,29.28,19,3,19,0.10
2013-11-19,49.8,42.1,30.2,29.4,25.7,21.8,72,53,43,29.97,29.56,20,4,20,0.00
2013-11-20,51.2,37.4,26.2,31.2,21.3,13.6,79,55,32,30.16,29.96,12,0,12,0.00
2013-11-21,52.3,41.3,30.7,38.2,30.9,20.4,75,67,56,30.17,29.95,12,1,12,0.00
2013-11-22,59.5,52.3,46.7,49.4,44.8,38.0,85,76,68,29.95,29.62,12,0,12,2.23
2013-11-23,51.9,40.5,28.0,43.6,25.7,8.3,74,56,42,29.83,29.66,16,4,16,2.10
2013-11-24,32.7,25.7,20.1,12.7,8.9,6.3,60,49,38,30.10,29.82,20,4,20,0.00
2013-11-25,43.8,29.0,16.3,16.4,10.9,7.2,70,49,28,30.14,29.89,15,1,15,0.00
2013-11-26,36.6,34.8,33.0,33.9,24.9,12.6,91,70,41,29.90,29.24,12,1,12,1.45
2013-11-27,39.9,35.5,27.8,34.9,29.3,16.7,91,79,62,29.64,29.17,18,4,18,0.06
2013-11-28,40.2,31.5,24.9,21.0,17.2,13.5,64,56,43,30.05,29.64,16,2,16,0.00
2013-11-29,43.3,31.9,24.9,28.4,20.2,16.7,76,63,45,30.30,30.04,15,1,15,0.94
2013-11-30,40.6,30.0,19.9,22.3,18.7,14.4,80,63,47,30.30,29.95,14,1,14,0.00
2013-12-1,41.5,34.7,23.1,29.5,24.7,17.2,81,67,57,29.94,29.61,14,0,14,0.00
2013-12-2,47.4,40.1,36.3,35.9,31.8,29.0,79,72,63,29.61,29.47,14,0,14,0.00
2013-12-3,60.4,43.3,35.4,42.9,35.1,30.1,84,74,51,29.58,29.48,14,0,14,0.00
2013-12-4,63.1,48.0,33.6,47.5,40.3,29.4,88,76,55,29.69,29.57,14,2,14,0.00
2013-12-5,67.8,58.9,51.6,57.5,53.4,47.3,91,83,68,29.65,29.51,15,3,15,0.02
2013-12-6,60.9,45.8,37.0,58.3,43.0,34.8,92,90,85,29.79,29.48,14,2,14,1.94
2013-12-7,40.2,35.1,28.2,34.7,28.6,20.3,92,78,62,30.14,29.75,14,2,14,0.00
2013-12-8,30.2,27.1,23.9,26.4,22.0,18.0,89,81,73,30.17,29.90,3,0,3,0.00
2013-12-9,41.0,33.6,29.1,35.8,30.3,26.3,91,88,78,29.91,29.63,14,0,14,0.04
2013-12-10,43.7,32.3,20.3,34.7,26.8,15.2,91,80,60,29.82,29.59,14,1,14,0.08
2013-12-11,45.3,29.0,19.2,24.9,18.0,12.4,81,65,41,29.98,29.80,9,0,9,0.08
2013-12-12,30.0,28.8,27.6,21.7,20.3,17.7,73,70,66,29.93,29.85,11,2,11,0.00
2013-12-13,46.9,30.6,18.5,23.0,15.2,7.5,69,54,37,29.90,29.79,9,1,9,0.00
2013-12-14,35.9,31.8,29.8,32.1,25.3,20.8,91,77,69,29.92,29.34,14,0,14,0.25
2013-12-15,44.4,34.0,30.3,38.7,27.7,21.7,91,78,64,29.54,29.25,21,2,21,0.04
2013-12-16,34.5,31.7,27.6,25.6,22.0,17.7,73,67,63,29.77,29.53,20,2,20,0.00
2013-12-17,39.9,32.7,28.2,32.7,26.7,23.6,86,79,70,29.73,29.54,28,2,28,0.00
2013-12-18,41.3,31.7,24.8,26.3,22.8,18.3,87,70,53,29.81,29.60,11,1,11,0.00
2013-12-19,59.3,41.2,24.4,33.1,26.7,18.4,79,58,36,29.78,29.65,9,0,9,0.00
2013-12-20,58.2,49.6,40.2,35.9,32.3,29.0,66,52,41,29.69,29.57,14,0,14,0.00
2013-12-21,69.2,59.2,48.0,56.9,46.2,35.5,75,63,50,29.59,29.46,14,2,14,0.00
2013-12-22,67.6,63.6,59.5,61.6,57.7,54.7,89,81,69,29.59,29.38,61,2,61,0.16
2013-12-23,59.5,50.6,34.7,55.6,44.8,24.7,93,80,64,29.86,29.49,15,2,15,0.41
2013-12-24,40.2,30.2,20.8,27.2,19.2,8.8,79,64,48,30.07,29.80,20,3,20,0.00
2013-12-25,37.2,25.9,17.2,18.5,12.7,8.7,72,58,43,30.17,29.92,15,2,15,0.00
2013-12-26,46.7,33.1,25.5,27.0,19.3,13.9,69,58,41,29.94,29.80,17,2,17,0.00
2013-12-27,55.2,36.1,23.3,26.3,19.9,16.5,77,55,27,29.99,29.88,11,1,11,0.00
2013-12-28,62.7,44.4,31.1,32.4,25.2,19.8,64,48,30,29.91,29.69,14,1,14,0.00
2013-12-29,47.3,44.2,41.5,44.0,36.9,25.3,90,77,44,29.70,29.17,14,1,14,0.69
2013-12-30,44.7,37.5,27.1,40.2,29.3,18.5,89,73,62,29.77,29.41,14,3,14,0.00
2013-12-31,43.3,31.7,24.2,29.9,19.6,14.7,73,61,45,29.91,29.69,23,2,23,0.00
2014-1-1,50.3,35.6,23.9,28.5,23.1,15.3,76,62,42,29.97,29.70,14,2,14,0.00
2014-1-2,38.1,31.4,26.6,29.0,25.6,21.0,88,80,64,29.70,29.24,3,0,3,0.00